Regional Weather Roundup
Issued by NWS

Home | Current Version | Previous Version | Text Only | Print | Product List | Glossary On
Versions: 1 2 3 4 5 6 7 8 9 10 11 12 13 14 15 16 17 18 19 20 21 22 23 24 25 26 27 28 29 30 31 32 33 34 35 36 37 38 39 40 41 42 43 44 45 46 47 48 49 50
000
ASUS44 KLIX 270511
RWRLA
LOUISIANA WEATHER ROUNDUP
NATIONAL WEATHER SERVICE NEW ORLEANS LA
1200 AM CDT FRI MAR 27 2015

NOTE: "FAIR" INDICATES FEW OR NO CLOUDS BELOW 12,000 FEET WITH NO
      SIGNIFICANT WEATHER AND/OR OBSTRUCTIONS TO VISIBILITY.
      SKY/WX - SKY CONDITION AND SIGNIFICANT WEATHER.
      TMP - AIR TEMPERATURE.    DP   - DEWPOINT TEMPERATURE.
      RH  - RELATIVE HUMIDITY.  PRES - PRESSURE.
      HX  - HEAT INDEX.         WCI  - WIND CHILL INDEX.

*  THESE STATIONS ARE NOT NWS OR FAA STATIONS AND ARE NOT UNDER
   NWS QUALITY CONTROL.

LAZ040-048-061>063-065-066-069-270600-
SOUTHEAST LOUISIANA

CITY           SKY/WX    TMP DP  RH WIND       PRES   REMARKS
N.O. AUDUBON     N/A     61 N/A N/A MISG        N/A
N.O. INTL ARPT CLOUDY    61  56  83 NW18G28   29.93R
N.O. LAKEFRONT CLOUDY    63  58  83 N26       29.92R
SLIDELL        CLOUDY    59  56  89 N13G21    29.91R
BATON ROUGE    CLOUDY    55  48  77 N9G18     29.99R
BOOTHVILLE     MOCLDY    63  62  97 W3        29.90F FOG
BELLE CHASSE   CLOUDY    65  61  87 NW12G22   29.90R FOG
BOGALUSA*        N/A     57  52  82 N13       29.96R
GALLIANO*      CLOUDY    54  54  97 MISG      29.91S
NEW ROADS*     CLOUDY    54  48  79 NW15      30.02R
GONZALES*      CLOUDY    57  54  87 NW12G20   29.98R
HAMMOND*       CLOUDY    57  52  82 N16G23    29.97R
HOUMA*         CLOUDY    59  58  96 NW14G21   29.94R FOG
PORT FOURCHON* CLOUDY    68  66  94 NW6       29.94S

$$

LAZ041-044-053-054-270600-
SOUTHWEST LOUISIANA

CITY           SKY/WX    TMP DP  RH WIND       PRES   REMARKS
LAKE CHARLES   CLOUDY    58  48  69 N22       30.05R
LAFAYETTE      CLOUDY    57  49  74 N14       30.02R
PATTERSON      CLOUDY    57  52  82 N8G17     29.97F
SALT POINT       N/A     58  54  86 N10G21    29.96R
NEW IBERIA     CLOUDY    57  50  77 N16       30.01R
CHENAULT AIRPK PTCLDY    55  47  74 N12G21    30.06R

$$

LAZ027-028-270600-
CENTRAL LOUISIANA

CITY           SKY/WX    TMP DP  RH WIND       PRES   REMARKS
FORT POLK      MOCLDY    52  46  81 VRB6      30.07R
ALEXANDRIA INT CLOUDY    52  46  80 N8        30.06S
ALEXANDRIA     MOCLDY    52  45  77 N9G17     30.06S

$$

LAZ001-002-270600-
NORTHWEST LOUISIANA

CITY           SKY/WX    TMP DP  RH WIND       PRES   REMARKS
SHREVEPORT     CLEAR     47  44  90 CALM      30.09S
BARKSDALE AFB  NOT AVBL
DTN SHREVEPORT CLEAR     47  43  86 CALM      30.10S

$$

LAZ014-016-270600-
NORTHEAST LOUISIANA

CITY           SKY/WX    TMP DP  RH WIND       PRES   REMARKS
MONROE         CLEAR     47  44  90 NE6       30.09S
TALLULAH       LGT RAIN  51  42  71 N13G31    30.06R

$$



USA.gov is the U.S. government's official web portal to all federal, state and local government web resources and services.